Regional Weather Roundup
Issued by NWS

Home | Current Version | Previous Version | Text Only | Print | Product List | Glossary On
Versions: 1 2 3 4 5 6 7 8 9 10 11 12 13 14 15 16 17 18 19 20 21 22 23 24 25 26 27 28
000
ASUS45 KREV 290910
RWRNV
NEVADA REGIONAL WEATHER ROUNDUP
NATIONAL WEATHER SERVICE RENO NV
200 AM PDT MON AUG 29 2016

NOTE: "FAIR" INDICATES FEW OR NO CLOUDS BELOW 12,000 FEET WITH NO
SIGNIFICANT WEATHER AND/OR OBSTRUCTIONS TO VISIBILITY.

NVZ001-003-004-291000-
WESTERN NEVADA

CITY           SKY/WX    TMP DP  RH WIND       PRES   REMARKS
RENO           CLEAR     61  33  35 S6        30.22F
CARSON CITY    FAIR      59  28  31 W3        30.25S
MINDEN         FAIR      48  32  53 CALM      30.26S
PYRAMID LAKE     N/A     73 N/A N/A W3          N/A
FALLON         CLEAR     64  31  28 SW3       30.17R
LOVELOCK       CLEAR     54  22  28 S6        30.16R
$$

NVZ002-CAZ072-073-291000-
NORTHERN AND CENTRAL SIERRA

CITY           SKY/WX    TMP DP  RH WIND       PRES   REMARKS
S. LAKE TAHOE  CLEAR     45  30  55 S3        30.36S
TRUCKEE        CLEAR     41  30  65 CALM      30.35S
SQUAW VLY 8000 NOT AVBL
MAMMOTH LAKES  FAIR      49  22  33 CALM      30.41S
BRIDGEPORT       N/A     47  17  30 CALM      30.38R
$$

NVZ030-031-036-291000-
NORTHERN NEVADA

CITY           SKY/WX    TMP DP  RH WIND       PRES   REMARKS
ELKO           CLEAR     53  27  36 CALM      30.23S
WINNEMUCCA     PTCLDY    50  19  29 SE6       30.18R
WENDOVER       CLEAR     64  34  32 CALM      30.18S
$$

NVZ035-037-291000-
CENTRAL NEVADA

CITY           SKY/WX    TMP DP  RH WIND       PRES   REMARKS
ELY            CLEAR     49  26  41 SE7       30.33R
EUREKA           N/A     50  24  36 S8        30.28S
$$

NVZ013-014-291000-
SOUTH CENTRAL NEVADA

CITY           SKY/WX    TMP DP  RH WIND       PRES   REMARKS
TONOPAH        CLEAR     60  15  17 N9        30.25S
$$

NVZ017-020-022-291000-
SOUTHERN NEVADA

CITY           SKY/WX    TMP DP  RH WIND       PRES   REMARKS
LAS VEGAS      CLEAR     81  46  29 S5        29.98S
N. LAS VEGAS   CLEAR     80  51  36 NW3       29.99F
NELLIS AFB     CLEAR     76  55  47 NE5       29.98S
HENDERSON      CLEAR     77  48  35 S9        30.04S
MERCURY        CLEAR     71  34  25 E3        30.08S
$$




USA.gov is the U.S. government's official web portal to all federal, state and local government web resources and services.